#timestamp,LO_Frequency,Hit,StdDev 
1693418415.8,286047001.9,N
1693418435.7,286047001.6,N
1693418455.5,286047001.6,N
1693418475.3,286047003.8,Y
1693418495.2,286047002.8,P
1693418515.9,286047001.3,N
1693418535.7,286047002.0,P
1693418555.6,286047002.4,Y
1693418575.4,286047015.4,P
1693418595.2,286047001.9,N
1693418615.1,286046997.2,N
1693418616.0,286046997.2,N
1693418635.8,286046995.5,N
1693418655.6,286046993.5,N
1693418675.5,286046993.6,N
1693418695.3,286046994.1,N
1693418715.1,286046994.4,N
1693418735.9,286046996.4,N
1693418755.7,286046998.0,N
1693418775.5,286046997.6,N
1693418795.4,286046995.2,N
1693418815.2,286046996.2,N
1693418835.0,286046993.8,N
1693418835.9,286046993.8,N
1693418855.8,286046992.4,N
1693418875.6,286046991.9,N
1693418895.4,286046992.6,N
1693418915.3,286046993.2,N
1693418935.1,286046993.2,N
1693418936.0,286046993.2,N
1693418955.8,286046992.9,N
1693418975.7,286046992.0,N
1693418995.5,286046994.0,N
1693419015.3,286046994.2,N
1693419035.2,286046994.7,N
1693419055.9,286046992.9,N
1693419075.7,286046994.0,N
1693419095.6,286046994.4,N
1693419115.4,286046992.9,N
1693419135.2,286046994.5,N
1693419155.1,286046994.7,Y
1693419156.0,286046994.7,P
1693419175.8,286046999.6,N
1693419195.6,286046999.3,N
1693419215.5,286046999.2,N
1693419235.3,286046998.6,N
1693419255.1,286047001.2,N
1693419275.9,286046998.8,N
1693419295.7,286046998.3,N
1693419315.5,286046998.3,N
1693419335.4,286046999.3,N
1693419355.2,286046998.9,N
1693419375.0,286046998.1,N
1693419375.9,286046998.1,N
1693419395.8,286046998.4,N
1693419415.6,286047000.5,N
1693419435.4,286047000.4,N
1693419455.3,286047000.6,N
1693419475.1,286047001.9,N
1693419495.8,286047000.0,N
1693419515.7,286047000.1,N
1693419535.5,286047001.0,N
1693419555.3,286047002.8,N
1693419575.2,286047000.6,N
1693419595.0,286047001.0,N
1693419595.9,286047001.0,N
1693419615.7,286047000.6,N
1693419635.6,286047000.7,N
1693419655.4,286047000.7,N
1693419675.2,286047000.5,N
1693419695.1,286047000.6,N
1693419696.0,286047000.6,N
1693419715.8,286046999.8,N
1693419735.6,286046999.9,N
1693419755.5,286047000.0,N
1693419775.3,286047002.7,N
1693419795.1,286046999.9,N
1693419815.9,286047002.6,N
1693419835.7,286047002.3,N
1693419855.6,286047002.3,N
1693419875.4,286047002.8,N
1693419895.2,286047001.6,N
1693419915.1,286047001.8,N
1693419916.0,286047001.8,N
1693419935.8,286047002.5,N
1693419955.6,286047001.8,N
1693419975.5,286046999.7,N
1693419995.3,286047001.7,N
1693420015.1,286047004.3,Y
1693420035.9,286047004.4,P
1693420055.7,286047001.4,N
1693420075.5,286047004.2,N
1693420095.4,286047003.1,N
1693420115.2,286047004.3,Y
1693420135.0,286047000.6,P
1693420135.9,286047000.6,N
1693420155.8,286047000.2,N
1693420175.6,286047000.1,N
1693420195.4,286047001.1,N
1693420215.3,286047000.3,N
1693420235.1,286047000.1,N
1693420236.0,286047000.1,N
1693420255.8,286047001.0,N
1693420275.7,286047002.7,Y
1693420295.5,286047002.0,P
1693420315.3,286047001.4,N
1693420335.2,286047005.8,P
1693420355.9,286047003.8,N
1693420375.7,286047003.6,N
1693420395.6,286047001.5,N
1693420415.4,286047002.0,N
1693420435.2,286047002.5,N
1693420455.1,286047000.0,N
1693420456.0,286047000.0,N
1693420475.8,286047002.3,N
1693420495.6,286046998.8,N
1693420515.5,286046999.2,N
1693420535.3,286046999.6,N
1693420555.1,286046997.5,N
1693420575.9,286046999.2,N
1693420595.7,286046997.3,N
1693420615.5,286046997.6,N
1693420635.4,286046997.9,N
1693420655.2,286046996.7,N
1693420675.0,286046996.7,N
1693420675.9,286046996.7,N
1693420695.8,286046996.5,N
1693420715.6,286046998.2,N
1693420735.4,286046998.2,N
1693420755.3,286047000.5,N
1693420775.1,286047001.2,N
1693420795.8,286046999.2,N
1693420815.7,286046998.3,N
1693420835.5,286046996.7,N
1693420855.3,286046996.7,N
1693420875.2,286046997.4,N
1693420895.9,286046998.3,N
1693420915.7,286046998.3,N
1693420935.6,286046998.2,N
1693420955.4,286047001.0,N
1693420975.2,286046998.5,N
1693420995.1,286046998.6,N
1693420996.0,286046998.6,N
1693421015.8,286047001.1,N
1693421035.6,286047000.9,N
1693421055.5,286047000.2,N
1693421075.3,286046998.3,N
1693421095.1,286047000.6,N
1693421115.9,286047000.2,N
1693421135.7,286047003.4,N
1693421155.5,286047004.3,N
1693421175.4,286047001.9,N
1693421195.2,286047003.8,N
1693421215.0,286047004.4,N
1693421215.9,286047004.4,N
1693421235.8,286047002.4,N
1693421255.6,286047000.5,N
1693421275.4,286047007.5,Y
1693421295.3,286047003.7,P
1693421315.1,286047001.3,N
1693421335.8,286047000.6,N
1693421355.7,286047000.7,N
1693421375.5,286046998.6,N
1693421395.3,286047011.9,Y
1693421415.2,286046996.6,P
1693421435.0,286046999.5,N
1693421435.9,286046999.5,N
1693421455.7,286046996.8,N
1693421475.6,286046996.7,N
1693421495.4,286046999.2,N
1693421515.2,286046998.6,N
1693421535.1,286046997.0,N
1693421536.0,286046997.0,N
1693421555.8,286046999.5,N
1693421575.6,286046999.6,N
1693421595.5,286046998.2,N
1693421615.3,286046996.9,N
1693421635.1,286046997.9,N
1693421655.9,286046994.9,Y
1693421675.7,286046999.0,P
1693421695.5,286047000.7,N
1693421715.4,286046998.1,N
1693421735.2,286046999.9,N
1693421755.0,286047000.1,N
1693421755.9,286047000.1,N
1693421775.8,286047002.4,N
1693421795.6,286047001.5,N
1693421815.4,286047002.7,N
1693421835.3,286046999.7,N
1693421855.1,286047002.2,N
1693421875.8,286047002.5,N
1693421895.7,286047002.3,N
1693421915.5,286047002.2,N
1693421935.3,286047001.6,N
1693421955.2,286047004.3,N
1693421975.0,286047004.2,N
1693421975.9,286047004.2,N
1693421995.7,286047001.3,N
